GW4358 Weather Reports


Display with metric or nautical units.
time (UTC)temp
F
wind
direction
speed
MPH
gust
MPH
rain 1hr
in
rain 24hr
in
rain mn
in
humidity
%
barometer
mb
20260510153047 -6 57 0.0 0.0 0.00 0.22 0.06 1016.4
20260510151535 -4 59 0.0 0.0 0.01 0.22 0.06 1016.1
20260510150031 -2 9 0.0 0.0 0.01 0.22 0.06 1016.0
20260510144544 -1 9 0.0 2.0 0.01 0.24 0.06 1016.0
20260510143021 -1 13 0.0 2.0 0.01 0.24 0.06 1016.0
20260510141517 -3 261 0.0 2.0 0.00 0.23 0.05 1016.0
20260510140013 -3 261 0.0 3.0 0.01 0.23 0.05 1015.8
20260510134509 -5 261 0.0 2.0 0.01 0.24 0.05 1015.8
20260510133004 -7 261 0.0 2.0 0.01 0.24 0.05 1015.8
20260510131559 -9 261 0.0 1.0 0.01 0.24 0.05 1015.6
20260510130056 -13 262 0.0 0.0 0.00 0.23 0.04 1015.5
20260510124551 -16 262 0.0 0.0 0.00 0.24 0.04 1015.3
20260510123051 -19 262 0.0 2.0 0.00 0.24 0.04 1015.4
20260510121543 -21 248 0.0 4.0 0.00 0.24 0.04 1015.2
20260510120038 -22 246 0.0 3.0 0.00 0.24 0.04 1014.8
20260510114534 -23 248 0.0 0.0 0.01 0.25 0.04 1014.5
20260510113029 -24 246 0.0 0.0 0.01 0.25 0.04 1014.3
20260510111527 -24 247 0.0 0.0 0.01 0.25 0.04 1014.1
20260510110026 -24 246 0.0 0.0 0.01 0.25 0.04 1013.7
20260510104517 -24 248 0.0 0.0 0.00 0.25 0.03 1013.5
20260510103011 -24 247 0.0 0.0 0.00 0.25 0.03 1013.2
20260510101507 -25 247 0.0 0.0 0.00 0.25 0.03 1013.0
20260510100003 -25 246 0.0 0.0 0.01 0.25 0.03 1012.7
20260510094614 -26 246 0.0 0.0 0.01 0.26 0.03 1012.5
20260510093054 -26 247 0.0 0.0 0.01 0.26 0.03 1012.4
20260510091549 -26 247 0.0 0.0 0.01 0.26 0.03 1012.3
20260510090046 -27 247 0.0 0.0 0.00 0.25 0.02 1012.3
20260510084556 -26 249 0.0 0.0 0.00 0.26 0.02 1012.1
20260510083039 -27 256 0.0 0.0 0.00 0.26 0.02 1012.2
20260510081536 -28 256 0.0 0.0 0.01 0.26 0.02 1012.0
20260510080027 -28 256 0.0 0.0 0.01 0.26 0.02 1011.9
20260510074524 -28 257 0.0 0.0 0.01 0.26 0.02 1011.7
20260510073022 -29 258 0.0 0.0 0.01 0.26 0.02 1011.4
20260510071514 -29 247 0.0 0.0 0.00 0.25 0.01 1011.5
20260510070010 -30 236 0.0 4.0 0.00 0.25 0.01 1011.5
20260510064505 -31 259 0.0 2.0 0.01 0.27 0.01 1011.6
20260510063001 -31 250 0.0 1.0 0.01 0.27 0.01 1011.6
20260510061605 -31 220 0.0 1.0 0.01 0.27 0.01 1011.4
20260510060054 -32 258 0.0 0.0 0.01 0.27 0.01 1011.4
20260510054549 -32 224 0.0 0.0 0.00 0.26 0.00 1011.4
20260510053053 -33 223 0.0 0.0 0.00 0.26 0.00 1011.3
20260510051543 -33 216 0.0 0.0 0.00 0.26 0.00 1011.3
20260510050035 -34 208 0.0 0.0 0.01 0.26 0.00 1011.3
20260510044531 -34 258 0.0 0.0 0.01 0.28 0.26 1011.2
20260510043027 -35 231 0.0 0.0 0.01 0.28 0.26 1011.4
20260510041532 -36 230 0.0 0.0 0.01 0.28 0.26 1011.5
20260510040017 -37 214 0.0 0.0 0.00 0.27 0.25 1011.5
20260510034513 -37 221 0.0 0.0 0.01 0.28 0.25 1011.7
20260510033009 -37 240 0.0 0.0 0.01 0.28 0.25 1011.6
20260510031505 -38 227 0.0 0.0 0.01 0.28 0.25 1011.5
20260510030103 -39 231 0.0 0.0 0.01 0.28 0.25 1011.2
20260510024556 -40 246 0.0 0.0 0.00 0.28 0.24 1011.0
20260510023052 -41 221 0.0 0.0 0.00 0.28 0.24 1010.7
20260510021545 -42 221 0.0 0.0 0.01 0.28 0.24 1010.5
20260510020042 -42 222 0.0 0.0 0.01 0.28 0.24 1010.1
20260510014537 -43 215 0.0 0.0 0.01 0.28 0.24 1009.8
20260510013033 -44 257 0.0 2.0 0.01 0.28 0.24 1009.3
20260510011529 -44 256 0.0 4.0 0.01 0.28 0.23 1009.0
20260510010024 -45 257 0.0 3.0 0.01 0.28 0.23 1008.7
20260510004521 -46 256 0.0 0.0 0.01 0.28 0.23 1008.4
20260510003019 -46 257 0.0 1.0 0.01 0.28 0.23 1008.3
20260510001511 -46 258 0.0 2.0 0.01 0.28 0.22 1008.1
20260510000006 0 257 0.0 2.0 0.01 0.28 0.22 1008.0
20260509234502 8 257 0.0 3.0 0.01 0.30 0.22 1008.0
20260509233112 8 257 0.0 0.0 0.01 0.30 0.22 1007.8
20260509231559 10 257 0.0 3.0 0.01 0.28 0.21 1008.0
20260509230049 10 258 0.0 0.0 0.01 0.28 0.21 1008.0
20260509224546 11 257 0.0 0.0 0.01 0.30 0.21 1007.7
20260509223042 1 258 0.0 0.0 0.02 0.30 0.21 1007.6
20260509221536 11 258 0.0 0.0 0.01 0.28 0.20 1007.7
20260509220037 11 209 0.0 0.0 0.02 0.28 0.20 1007.6
20260509214529 11 247 0.0 1.0 0.02 0.30 0.20 1007.6
20260509213023 10 225 0.0 2.0 0.01 0.28 0.19 1007.5
20260509211518 11 246 0.0 1.0 0.02 0.28 0.19 1007.5
20260509210014 12 225 0.0 0.0 0.01 0.28 0.18 1007.6
20260509204509 13 217 0.0 0.0 0.02 0.30 0.18 1007.6
20260509203008 14 238 0.0 0.0 0.02 0.30 0.18 1007.8
20260509201600 16 241 0.0 0.0 0.01 0.28 0.17 1007.9
20260509200108 15 234 0.0 0.0 0.02 0.28 0.17 1008.1
20260509194552 13 63 0.0 0.0 0.01 0.30 0.16 1008.0
20260509193048 14 293 0.0 0.0 0.02 0.30 0.16 1008.0
20260509191544 15 315 0.0 0.0 0.02 0.30 0.16 1007.9
20260509190047 17 311 0.0 0.0 0.01 0.28 0.15 1008.2
20260509184539 16 244 0.0 6.0 0.02 0.31 0.15 1008.3
20260509183031 16 257 0.0 7.0 0.01 0.30 0.14 1008.4
20260509181525 17 217 0.0 5.0 0.02 0.30 0.14 1008.4
20260509180022 16 281 0.0 0.0 0.02 0.30 0.14 1008.6
20260509174517 17 268 0.0 0.0 0.01 0.31 0.13 1008.7
20260509173013 15 219 0.0 0.0 0.02 0.31 0.13 1008.5
20260509171511 24 238 0.0 0.0 0.01 0.30 0.12 1008.6
20260509170004 28 248 0.0 7.0 0.01 0.30 0.12 1008.4
20260509164559 29 283 0.0 8.0 0.02 0.32 0.12 1008.7
20260509163109 20 205 0.0 9.0 0.01 0.31 0.11 1008.9
20260509161550 28 192 0.0 7.0 0.01 0.31 0.11 1008.8
20260509160049 28 252 0.0 4.0 0.01 0.31 0.11 1008.8
20260509154546 31 219 0.0 0.0 0.01 0.32 0.10 1008.7